Location: Lobos
(35.3000°S, 59.0940°W)
Time: 06:44:21
(UTC-03:00)

STARLINK-1739 - Pass Details

Date: 21 September 2020
Orbit: 379 x 381 km, 53.0° (Epoch: 22 October)

Event Time Altitude Azimuth Distance (km) Brightness Sun altitude
Rises 20:46:15 0° 221° (SW) 2,284 7.7 -23.7°
Reaches altitude 10° 20:48:23 10° 214° (SW) 1,421 6.4 -24.1°
Enters shadow 20:49:41 21° 203° (SSW) 929 5.2 -24.3°
